Time,TemperatureF,DewpointF,PressureIn,WindDirection,WindDirectionDegrees,WindSpeedMPH,WindSpeedGustMPH,Humidity,HourlyPrecipIn,Conditions,Clouds,dailyrainin,SoftwareType,DateUTC
2013-04-23 00:00:00,67.5,65.1,30.07,North,32767,0.0,0.0,92,0.00,,,0.00,Wunderground v.1.15,2013-04-23 05:00:00,
2013-04-23 00:05:00,67.6,65.2,30.07,North,32767,0.0,0.0,92,0.00,,,0.00,Wunderground v.1.15,2013-04-23 05:05:00,
2013-04-23 00:10:00,67.6,65.2,30.07,North,32767,0.0,0.0,92,0.00,,,0.00,Wunderground v.1.15,2013-04-23 05:10:00,
2013-04-23 00:20:00,67.4,65.0,30.07,North,32767,0.0,0.0,92,0.00,,,0.00,Wunderground v.1.15,2013-04-23 05:20:00,
2013-04-23 00:25:00,67.4,65.0,30.07,North,32767,0.0,0.0,92,0.00,,,0.00,Wunderground v.1.15,2013-04-23 05:25:00,
2013-04-23 00:30:00,67.3,64.9,30.06,North,32767,0.0,0.0,92,0.00,,,0.00,Wunderground v.1.15,2013-04-23 05:30:00,
2013-04-23 00:35:00,67.3,65.2,30.06,North,32767,0.0,0.0,93,0.00,,,0.00,Wunderground v.1.15,2013-04-23 05:35:00,
2013-04-23 00:40:00,67.1,65.0,30.06,North,32767,0.0,0.0,93,0.00,,,0.00,Wunderground v.1.15,2013-04-23 05:40:00,
2013-04-23 00:45:00,67.1,65.0,30.06,North,32767,0.0,0.0,93,0.00,,,0.00,Wunderground v.1.15,2013-04-23 05:45:00,
2013-04-23 00:50:00,67.1,65.0,30.05,North,32767,0.0,0.0,93,0.00,,,0.00,Wunderground v.1.15,2013-04-23 05:50:00,
2013-04-23 00:55:00,67.2,65.1,30.05,North,32767,0.0,0.0,93,0.00,,,0.00,Wunderground v.1.15,2013-04-23 05:55:00,
2013-04-23 01:00:00,67.2,65.1,30.05,North,32767,0.0,0.0,93,0.00,,,0.00,Wunderground v.1.15,2013-04-23 06:00:00,
2013-04-23 01:05:00,67.1,65.0,30.05,North,32767,0.0,0.0,93,0.00,,,0.00,Wunderground v.1.15,2013-04-23 06:05:00,
2013-04-23 01:10:00,67.2,65.1,30.05,North,32767,0.0,0.0,93,0.00,,,0.00,Wunderground v.1.15,2013-04-23 06:10:00,
2013-04-23 01:15:00,67.3,65.2,30.05,North,32767,0.0,0.0,93,0.00,,,0.00,Wunderground v.1.15,2013-04-23 06:15:00,
2013-04-23 01:20:00,67.4,65.3,30.05,North,32767,0.0,0.0,93,0.00,,,0.00,Wunderground v.1.15,2013-04-23 06:20:00,
2013-04-23 01:25:00,67.5,65.4,30.05,North,32767,0.0,0.0,93,0.00,,,0.00,Wunderground v.1.15,2013-04-23 06:25:00,
2013-04-23 01:30:00,67.5,65.4,30.05,North,32767,0.0,0.0,93,0.00,,,0.00,Wunderground v.1.15,2013-04-23 06:30:00,
2013-04-23 01:35:00,67.6,65.5,30.05,North,32767,0.0,0.0,93,0.00,,,0.00,Wunderground v.1.15,2013-04-23 06:35:00,
2013-04-23 01:40:00,67.5,65.4,30.05,North,32767,0.0,0.0,93,0.00,,,0.00,Wunderground v.1.15,2013-04-23 06:40:00,
2013-04-23 01:45:00,67.5,65.4,30.05,North,32767,0.0,0.0,93,0.00,,,0.00,Wunderground v.1.15,2013-04-23 06:45:00,
2013-04-23 01:50:00,67.4,65.3,30.05,North,32767,0.0,0.0,93,0.00,,,0.00,Wunderground v.1.15,2013-04-23 06:50:00,
2013-04-23 01:55:00,67.4,65.3,30.05,North,32767,0.0,0.0,93,0.00,,,0.00,Wunderground v.1.15,2013-04-23 06:55:00,
2013-04-23 02:00:00,67.4,65.3,30.04,North,32767,0.0,0.0,93,0.00,,,0.00,Wunderground v.1.15,2013-04-23 07:00:00,
2013-04-23 02:05:00,67.4,65.3,30.04,North,32767,0.0,0.0,93,0.00,,,0.00,Wunderground v.1.15,2013-04-23 07:05:00,
2013-04-23 02:10:00,67.4,65.3,30.04,North,32767,0.0,0.0,93,0.00,,,0.00,Wunderground v.1.15,2013-04-23 07:10:00,
2013-04-23 02:15:00,67.5,65.4,30.04,North,32767,0.0,0.0,93,0.00,,,0.00,Wunderground v.1.15,2013-04-23 07:15:00,
2013-04-23 02:20:00,67.6,65.8,30.04,North,32767,0.0,0.0,94,0.00,,,0.00,Wunderground v.1.15,2013-04-23 07:20:00,
2013-04-23 02:25:00,67.7,65.9,30.04,North,32767,0.0,0.0,94,0.00,,,0.00,Wunderground v.1.15,2013-04-23 07:25:00,
2013-04-23 02:35:00,67.9,66.1,30.04,North,32767,0.0,0.0,94,0.00,,,0.00,Wunderground v.1.15,2013-04-23 07:35:00,
2013-04-23 02:40:00,67.8,66.0,30.04,North,32767,0.0,0.0,94,0.00,,,0.00,Wunderground v.1.15,2013-04-23 07:40:00,
2013-04-23 02:45:00,67.7,65.9,30.04,North,32767,0.0,0.0,94,0.00,,,0.00,Wunderground v.1.15,2013-04-23 07:45:00,
2013-04-23 02:50:00,67.6,65.5,30.04,North,32767,0.0,0.0,93,0.00,,,0.00,Wunderground v.1.15,2013-04-23 07:50:00,
2013-04-23 02:55:00,67.4,65.3,30.04,North,32767,0.0,0.0,93,0.00,,,0.00,Wunderground v.1.15,2013-04-23 07:55:00,
2013-04-23 03:00:00,67.3,65.2,30.04,North,32767,0.0,0.0,93,0.00,,,0.00,Wunderground v.1.15,2013-04-23 08:00:00,
2013-04-23 03:05:00,67.2,65.1,30.04,North,32767,0.0,0.0,93,0.00,,,0.00,Wunderground v.1.15,2013-04-23 08:05:00,
2013-04-23 03:10:00,67.1,65.0,30.04,North,32767,0.0,0.0,93,0.00,,,0.00,Wunderground v.1.15,2013-04-23 08:10:00,
2013-04-23 03:15:00,67.1,65.3,30.04,North,32767,0.0,0.0,94,0.00,,,0.00,Wunderground v.1.15,2013-04-23 08:15:00,
2013-04-23 03:20:00,67.0,65.2,30.04,North,32767,0.0,0.0,94,0.00,,,0.00,Wunderground v.1.15,2013-04-23 08:20:00,
2013-04-23 03:25:00,66.9,65.1,30.04,North,32767,0.0,0.0,94,0.00,,,0.00,Wunderground v.1.15,2013-04-23 08:25:00,
2013-04-23 03:30:00,66.9,65.1,30.04,North,32767,0.0,0.0,94,0.00,,,0.00,Wunderground v.1.15,2013-04-23 08:30:00,
2013-04-23 03:35:00,66.9,65.1,30.04,North,32767,0.0,0.0,94,0.00,,,0.00,Wunderground v.1.15,2013-04-23 08:35:00,
2013-04-23 03:45:00,66.8,65.0,30.04,North,32767,0.0,0.0,94,0.00,,,0.00,Wunderground v.1.15,2013-04-23 08:45:00,
2013-04-23 03:50:00,66.8,65.0,30.04,North,32767,0.0,0.0,94,0.00,,,0.00,Wunderground v.1.15,2013-04-23 08:50:00,
2013-04-23 03:55:00,66.8,65.0,30.04,North,32767,0.0,0.0,94,0.00,,,0.00,Wunderground v.1.15,2013-04-23 08:55:00,
2013-04-23 04:00:00,66.8,65.3,30.04,North,32767,0.0,0.0,95,0.00,,,0.00,Wunderground v.1.15,2013-04-23 09:00:00,
2013-04-23 04:05:00,66.8,65.3,30.04,North,32767,0.0,0.0,95,0.00,,,0.00,Wunderground v.1.15,2013-04-23 09:05:00,
2013-04-23 04:10:00,66.8,65.3,30.04,North,32767,0.0,0.0,95,0.00,,,0.00,Wunderground v.1.15,2013-04-23 09:10:00,
2013-04-23 04:15:00,66.8,65.3,30.04,North,32767,0.0,0.0,95,0.00,,,0.00,Wunderground v.1.15,2013-04-23 09:15:00,
2013-04-23 04:20:00,67.0,65.5,30.04,North,32767,0.0,0.0,95,0.00,,,0.00,Wunderground v.1.15,2013-04-23 09:20:00,
2013-04-23 04:25:00,67.1,65.6,30.04,North,32767,0.0,0.0,95,0.00,,,0.00,Wunderground v.1.15,2013-04-23 09:25:00,
2013-04-23 04:30:00,67.2,65.7,30.04,North,32767,0.0,0.0,95,0.00,,,0.00,Wunderground v.1.15,2013-04-23 09:30:00,
2013-04-23 04:35:00,67.3,65.8,30.04,North,32767,0.0,0.0,95,0.00,,,0.00,Wunderground v.1.15,2013-04-23 09:35:00,
2013-04-23 04:40:00,67.3,65.8,30.04,North,32767,0.0,0.0,95,0.00,,,0.00,Wunderground v.1.15,2013-04-23 09:40:00,
2013-04-23 04:45:00,67.3,65.5,30.04,North,32767,0.0,0.0,94,0.00,,,0.00,Wunderground v.1.15,2013-04-23 09:45:00,
2013-04-23 04:50:00,67.3,65.8,30.04,North,32767,0.0,0.0,95,0.00,,,0.00,Wunderground v.1.15,2013-04-23 09:50:00,
2013-04-23 04:55:00,67.3,65.8,30.04,North,32767,0.0,0.0,95,0.00,,,0.00,Wunderground v.1.15,2013-04-23 09:55:00,
2013-04-23 05:00:00,67.3,65.8,30.04,North,32767,0.0,0.0,95,0.00,,,0.00,Wunderground v.1.15,2013-04-23 10:00:00,
2013-04-23 05:05:00,67.3,65.8,30.04,North,32767,0.0,0.0,95,0.00,,,0.00,Wunderground v.1.15,2013-04-23 10:05:00,
2013-04-23 05:10:00,67.3,65.8,30.04,North,32767,0.0,0.0,95,0.00,,,0.00,Wunderground v.1.15,2013-04-23 10:10:00,
2013-04-23 05:15:00,67.3,65.8,30.05,North,32767,0.0,0.0,95,0.00,,,0.00,Wunderground v.1.15,2013-04-23 10:15:00,
2013-04-23 05:20:00,67.3,65.8,30.04,North,32767,0.0,0.0,95,0.00,,,0.00,Wunderground v.1.15,2013-04-23 10:20:00,
2013-04-23 05:25:00,67.3,65.8,30.04,North,32767,0.0,0.0,95,0.00,,,0.00,Wunderground v.1.15,2013-04-23 10:25:00,
2013-04-23 05:30:00,67.3,65.8,30.04,North,32767,0.0,0.0,95,0.00,,,0.00,Wunderground v.1.15,2013-04-23 10:30:00,
2013-04-23 05:40:00,67.2,65.7,30.04,North,32767,0.0,0.0,95,0.00,,,0.00,Wunderground v.1.15,2013-04-23 10:40:00,
2013-04-23 05:45:00,67.2,65.4,30.04,North,32767,0.0,0.0,94,0.00,,,0.00,Wunderground v.1.15,2013-04-23 10:45:00,
2013-04-23 05:50:00,67.2,65.7,30.04,North,32767,0.0,0.0,95,0.00,,,0.00,Wunderground v.1.15,2013-04-23 10:50:00,
2013-04-23 05:55:00,67.3,65.5,30.05,North,32767,0.0,0.0,94,0.00,,,0.00,Wunderground v.1.15,2013-04-23 10:55:00,
2013-04-23 06:00:00,67.3,65.5,30.05,North,32767,0.0,0.0,94,0.00,,,0.00,Wunderground v.1.15,2013-04-23 11:00:00,
2013-04-23 06:05:00,67.3,65.5,30.05,North,32767,0.0,0.0,94,0.00,,,0.00,Wunderground v.1.15,2013-04-23 11:05:00,
2013-04-23 06:15:00,67.2,65.4,30.05,North,32767,0.0,0.0,94,0.00,,,0.00,Wunderground v.1.15,2013-04-23 11:15:00,
2013-04-23 06:20:00,67.2,65.4,30.05,North,32767,0.0,0.0,94,0.00,,,0.00,Wunderground v.1.15,2013-04-23 11:20:00,
2013-04-23 06:25:00,67.1,65.3,30.05,North,32767,0.0,0.0,94,0.00,,,0.00,Wunderground v.1.15,2013-04-23 11:25:00,
2013-04-23 06:30:00,67.1,65.3,30.05,North,32767,0.0,0.0,94,0.00,,,0.00,Wunderground v.1.15,2013-04-23 11:30:00,
2013-04-23 06:35:00,67.1,65.3,30.05,North,32767,0.0,0.0,94,0.00,,,0.00,Wunderground v.1.15,2013-04-23 11:35:00,
2013-04-23 06:40:00,67.2,65.4,30.05,North,32767,0.0,0.0,94,0.00,,,0.00,Wunderground v.1.15,2013-04-23 11:40:00,
2013-04-23 06:45:00,67.2,65.7,30.05,North,32767,0.0,0.0,95,0.00,,,0.00,Wunderground v.1.15,2013-04-23 11:45:00,
2013-04-23 06:50:00,67.3,65.5,30.05,North,32767,0.0,0.0,94,0.00,,,0.00,Wunderground v.1.15,2013-04-23 11:50:00,
2013-04-23 06:55:00,67.3,65.5,30.05,North,32767,0.0,0.0,94,0.00,,,0.00,Wunderground v.1.15,2013-04-23 11:55:00,
2013-04-23 07:00:00,67.4,65.6,30.06,North,32767,0.0,0.0,94,0.00,,,0.00,Wunderground v.1.15,2013-04-23 12:00:00,
2013-04-23 07:05:00,67.6,65.8,30.06,North,32767,0.0,0.0,94,0.00,,,0.00,Wunderground v.1.15,2013-04-23 12:05:00,
2013-04-23 07:10:00,67.7,65.9,30.06,North,32767,0.0,0.0,94,0.00,,,0.00,Wunderground v.1.15,2013-04-23 12:10:00,
2013-04-23 07:15:00,68.1,66.3,30.06,North,32767,0.0,0.0,94,0.00,,,0.00,Wunderground v.1.15,2013-04-23 12:15:00,
2013-04-23 07:20:00,68.3,66.5,30.06,North,32767,0.0,0.0,94,0.00,,,0.00,Wunderground v.1.15,2013-04-23 12:20:00,
2013-04-23 07:25:00,68.4,66.6,30.06,North,32767,0.0,0.0,94,0.00,,,0.00,Wunderground v.1.15,2013-04-23 12:25:00,
2013-04-23 07:30:00,68.4,66.6,30.06,North,32767,0.0,0.0,94,0.00,,,0.00,Wunderground v.1.15,2013-04-23 12:30:00,
2013-04-23 07:35:00,68.5,66.7,30.06,North,32767,0.0,0.0,94,0.00,,,0.00,Wunderground v.1.15,2013-04-23 12:35:00,
2013-04-23 07:40:00,68.7,66.9,30.06,North,32767,0.0,0.0,94,0.00,,,0.00,Wunderground v.1.15,2013-04-23 12:40:00,
2013-04-23 07:45:00,68.8,67.0,30.07,North,32767,0.0,0.0,94,0.00,,,0.00,Wunderground v.1.15,2013-04-23 12:45:00,
2013-04-23 07:50:00,68.8,67.0,30.07,North,32767,0.0,0.0,94,0.00,,,0.00,Wunderground v.1.15,2013-04-23 12:50:00,
2013-04-23 07:55:00,69.0,67.2,30.07,North,32767,0.0,0.0,94,0.00,,,0.00,Wunderground v.1.15,2013-04-23 12:55:00,
2013-04-23 08:00:00,69.3,67.2,30.07,North,32767,0.0,0.0,93,0.00,,,0.00,Wunderground v.1.15,2013-04-23 13:00:00,
2013-04-23 08:05:00,69.5,67.4,30.07,North,32767,0.0,0.0,93,0.00,,,0.00,Wunderground v.1.15,2013-04-23 13:05:00,
2013-04-23 08:10:00,69.5,67.4,30.07,North,32767,0.0,0.0,93,0.00,,,0.00,Wunderground v.1.15,2013-04-23 13:10:00,
2013-04-23 08:20:00,69.7,67.6,30.07,North,32767,0.0,0.0,93,0.00,,,0.00,Wunderground v.1.15,2013-04-23 13:20:00,
2013-04-23 08:25:00,70.1,67.7,30.07,North,32767,0.0,0.0,92,0.00,,,0.00,Wunderground v.1.15,2013-04-23 13:25:00,
2013-04-23 08:30:00,70.4,68.0,30.08,North,32767,0.0,0.0,92,0.00,,,0.00,Wunderground v.1.15,2013-04-23 13:30:00,
2013-04-23 08:35:00,70.7,67.9,30.08,North,32767,0.0,0.0,91,0.00,,,0.00,Wunderground v.1.15,2013-04-23 13:35:00,
2013-04-23 08:40:00,70.9,68.5,30.08,North,32767,0.0,0.0,92,0.00,,,0.00,Wunderground v.1.15,2013-04-23 13:40:00,
2013-04-23 08:50:00,71.3,68.5,30.08,North,32767,0.0,0.0,91,0.00,,,0.00,Wunderground v.1.15,2013-04-23 13:50:00,
2013-04-23 08:55:00,71.4,68.3,30.08,North,32767,0.0,0.0,90,0.00,,,0.00,Wunderground v.1.15,2013-04-23 13:55:00,
2013-04-23 09:00:00,71.5,68.7,30.08,North,32767,0.0,0.0,91,0.00,,,0.00,Wunderground v.1.15,2013-04-23 14:00:00,
2013-04-23 09:05:00,71.7,68.6,30.09,North,32767,0.0,0.0,90,0.00,,,0.00,Wunderground v.1.15,2013-04-23 14:05:00,
2013-04-23 09:10:00,71.7,68.6,30.08,North,32767,0.0,0.0,90,0.00,,,0.00,Wunderground v.1.15,2013-04-23 14:10:00,
2013-04-23 09:15:00,71.9,68.8,30.09,North,32767,0.0,0.0,90,0.00,,,0.00,Wunderground v.1.15,2013-04-23 14:15:00,
2013-04-23 09:20:00,72.0,68.9,30.09,North,32767,0.0,0.0,90,0.00,,,0.00,Wunderground v.1.15,2013-04-23 14:20:00,
2013-04-23 09:25:00,72.0,68.9,30.09,North,32767,0.0,0.0,90,0.00,,,0.00,Wunderground v.1.15,2013-04-23 14:25:00,
2013-04-23 09:30:00,72.3,69.2,30.09,North,32767,0.0,0.0,90,0.00,,,0.00,Wunderground v.1.15,2013-04-23 14:30:00,
2013-04-23 09:35:00,72.5,69.1,30.09,North,32767,0.0,0.0,89,0.00,,,0.00,Wunderground v.1.15,2013-04-23 14:35:00,
2013-04-23 09:40:00,72.4,69.0,30.09,North,32767,0.0,0.0,89,0.00,,,0.00,Wunderground v.1.15,2013-04-23 14:40:00,
2013-04-23 09:45:00,72.7,69.3,30.09,North,32767,0.0,0.0,89,0.00,,,0.00,Wunderground v.1.15,2013-04-23 14:45:00,
2013-04-23 09:50:00,72.7,68.9,30.09,North,32767,0.0,0.0,88,0.00,,,0.00,Wunderground v.1.15,2013-04-23 14:50:00,
2013-04-23 09:55:00,72.8,69.4,30.10,North,32767,0.0,0.0,89,0.00,,,0.00,Wunderground v.1.15,2013-04-23 14:55:00,
2013-04-23 10:00:00,72.7,68.9,30.09,North,32767,0.0,0.0,88,0.00,,,0.00,Wunderground v.1.15,2013-04-23 15:00:00,
2013-04-23 10:05:00,72.8,69.0,30.10,North,32767,0.0,0.0,88,0.00,,,0.00,Wunderground v.1.15,2013-04-23 15:05:00,
2013-04-23 10:10:00,73.0,69.2,30.10,North,32767,0.0,0.0,88,0.00,,,0.00,Wunderground v.1.15,2013-04-23 15:10:00,
2013-04-23 10:15:00,73.2,69.4,30.10,North,32767,0.0,0.0,88,0.00,,,0.00,Wunderground v.1.15,2013-04-23 15:15:00,
2013-04-23 10:20:00,73.3,69.2,30.10,North,32767,0.0,0.0,87,0.00,,,0.00,Wunderground v.1.15,2013-04-23 15:20:00,
2013-04-23 10:25:00,73.5,69.4,30.10,North,32767,0.0,0.0,87,0.00,,,0.00,Wunderground v.1.15,2013-04-23 15:25:00,
2013-04-23 10:30:00,73.8,69.3,30.10,North,32767,0.0,0.0,86,0.00,,,0.00,Wunderground v.1.15,2013-04-23 15:30:00,
2013-04-23 10:35:00,73.9,69.8,30.10,North,32767,0.0,0.0,87,0.00,,,0.00,Wunderground v.1.15,2013-04-23 15:35:00,
2013-04-23 10:40:00,73.9,69.4,30.10,North,32767,0.0,0.0,86,0.00,,,0.00,Wunderground v.1.15,2013-04-23 15:40:00,
2013-04-23 10:45:00,73.9,69.4,30.10,North,32767,0.0,0.0,86,0.00,,,0.00,Wunderground v.1.15,2013-04-23 15:45:00,
2013-04-23 10:50:00,74.2,69.7,30.10,North,32767,0.0,0.0,86,0.00,,,0.00,Wunderground v.1.15,2013-04-23 15:50:00,
2013-04-23 10:55:00,74.2,69.7,30.10,North,32767,0.0,0.0,86,0.00,,,0.00,Wunderground v.1.15,2013-04-23 15:55:00,
2013-04-23 11:00:00,74.2,69.4,30.10,North,32767,0.0,0.0,85,0.00,,,0.00,Wunderground v.1.15,2013-04-23 16:00:00,
2013-04-23 11:05:00,74.2,69.4,30.10,North,32767,0.0,0.0,85,0.00,,,0.00,Wunderground v.1.15,2013-04-23 16:05:00,
2013-04-23 11:10:00,74.3,69.5,30.10,North,32767,0.0,0.0,85,0.00,,,0.00,Wunderground v.1.15,2013-04-23 16:10:00,
2013-04-23 11:15:00,74.4,69.6,30.10,North,32767,0.0,0.0,85,0.00,,,0.00,Wunderground v.1.15,2013-04-23 16:15:00,
2013-04-23 11:20:00,74.4,69.2,30.10,North,32767,0.0,0.0,84,0.00,,,0.00,Wunderground v.1.15,2013-04-23 16:20:00,
2013-04-23 11:25:00,74.5,69.3,30.10,North,32767,0.0,0.0,84,0.00,,,0.00,Wunderground v.1.15,2013-04-23 16:25:00,
2013-04-23 11:30:00,74.6,69.4,30.10,North,32767,0.0,0.0,84,0.00,,,0.00,Wunderground v.1.15,2013-04-23 16:30:00,
2013-04-23 11:40:00,74.8,70.0,30.10,North,32767,0.0,0.0,85,0.00,,,0.00,Wunderground v.1.15,2013-04-23 16:40:00,
2013-04-23 11:45:00,74.8,70.0,30.10,North,32767,0.0,0.0,85,0.00,,,0.00,Wunderground v.1.15,2013-04-23 16:45:00,
2013-04-23 11:50:00,75.3,70.5,30.10,North,32767,0.0,0.0,85,0.00,,,0.00,Wunderground v.1.15,2013-04-23 16:50:00,
2013-04-23 11:55:00,75.2,70.4,30.10,North,32767,0.0,0.0,85,0.00,,,0.00,Wunderground v.1.15,2013-04-23 16:55:00,
2013-04-23 12:00:00,74.7,70.2,30.09,North,32767,0.0,0.0,86,0.00,,,0.00,Wunderground v.1.15,2013-04-23 17:00:00,
2013-04-23 12:05:00,75.2,70.4,30.09,North,32767,0.0,0.0,85,0.00,,,0.00,Wunderground v.1.15,2013-04-23 17:05:00,
2013-04-23 12:10:00,75.0,70.2,30.09,North,32767,0.0,0.0,85,0.00,,,0.00,Wunderground v.1.15,2013-04-23 17:10:00,
2013-04-23 12:15:00,74.8,69.6,30.09,North,32767,0.0,0.0,84,0.00,,,0.00,Wunderground v.1.15,2013-04-23 17:15:00,
2013-04-23 12:20:00,74.9,70.1,30.09,North,32767,0.0,0.0,85,0.00,,,0.00,Wunderground v.1.15,2013-04-23 17:20:00,
2013-04-23 12:25:00,75.1,70.3,30.09,North,32767,0.0,0.0,85,0.00,,,0.00,Wunderground v.1.15,2013-04-23 17:25:00,
2013-04-23 12:30:00,75.2,70.4,30.09,North,32767,0.0,0.0,85,0.00,,,0.00,Wunderground v.1.15,2013-04-23 17:30:00,
2013-04-23 12:35:00,74.9,69.7,30.08,North,32767,0.0,0.0,84,0.00,,,0.00,Wunderground v.1.15,2013-04-23 17:35:00,
2013-04-23 12:40:00,74.8,70.3,30.08,North,32767,0.0,0.0,86,0.00,,,0.00,Wunderground v.1.15,2013-04-23 17:40:00,
2013-04-23 12:45:00,74.7,70.2,30.08,North,32767,0.0,0.0,86,0.00,,,0.00,Wunderground v.1.15,2013-04-23 17:45:00,
2013-04-23 12:50:00,74.4,70.3,30.08,North,32767,0.0,0.0,87,0.00,,,0.00,Wunderground v.1.15,2013-04-23 17:50:00,
2013-04-23 12:55:00,74.3,69.8,30.08,North,32767,0.0,0.0,86,0.00,,,0.00,Wunderground v.1.15,2013-04-23 17:55:00,
2013-04-23 13:00:00,74.2,69.7,30.08,North,32767,0.0,0.0,86,0.00,,,0.00,Wunderground v.1.15,2013-04-23 18:00:00,
2013-04-23 13:05:00,73.7,69.2,30.08,North,32767,0.0,0.0,86,0.00,,,0.00,Wunderground v.1.15,2013-04-23 18:05:00,
2013-04-23 13:10:00,73.3,69.2,30.08,North,32767,0.0,0.0,87,0.00,,,0.00,Wunderground v.1.15,2013-04-23 18:10:00,
2013-04-23 13:15:00,73.8,69.7,30.07,North,32767,0.0,0.0,87,0.00,,,0.00,Wunderground v.1.15,2013-04-23 18:15:00,
2013-04-23 13:20:00,74.0,69.9,30.08,North,32767,0.0,0.0,87,0.00,,,0.00,Wunderground v.1.15,2013-04-23 18:20:00,
2013-04-23 13:25:00,74.0,69.9,30.08,North,32767,0.0,0.0,87,0.00,,,0.00,Wunderground v.1.15,2013-04-23 18:25:00,
2013-04-23 13:30:00,73.7,69.9,30.08,North,32767,0.0,0.0,88,0.00,,,0.00,Wunderground v.1.15,2013-04-23 18:30:00,
2013-04-23 13:35:00,74.2,70.1,30.08,North,32767,0.0,0.0,87,0.00,,,0.00,Wunderground v.1.15,2013-04-23 18:35:00,
2013-04-23 13:40:00,73.8,69.3,30.08,North,32767,0.0,0.0,86,0.00,,,0.00,Wunderground v.1.15,2013-04-23 18:40:00,
2013-04-23 13:45:00,73.3,69.5,30.08,North,32767,0.0,0.0,88,0.00,,,0.00,Wunderground v.1.15,2013-04-23 18:45:00,
2013-04-23 13:50:00,73.6,69.5,30.07,North,32767,0.0,0.0,87,0.00,,,0.00,Wunderground v.1.15,2013-04-23 18:50:00,
2013-04-23 13:55:00,73.7,69.6,30.07,North,32767,0.0,0.0,87,0.00,,,0.00,Wunderground v.1.15,2013-04-23 18:55:00,
2013-04-23 14:00:00,73.4,69.3,30.07,North,32767,0.0,0.0,87,0.00,,,0.00,Wunderground v.1.15,2013-04-23 19:00:00,
2013-04-23 14:05:00,73.4,69.3,30.07,North,32767,0.0,0.0,87,0.00,,,0.00,Wunderground v.1.15,2013-04-23 19:05:00,
2013-04-23 14:10:00,73.1,69.0,30.07,North,32767,0.0,0.0,87,0.00,,,0.00,Wunderground v.1.15,2013-04-23 19:10:00,
2013-04-23 14:15:00,73.5,69.7,30.07,North,32767,0.0,0.0,88,0.00,,,0.00,Wunderground v.1.15,2013-04-23 19:15:00,
2013-04-23 14:20:00,73.4,69.3,30.07,North,32767,0.0,0.0,87,0.00,,,0.00,Wunderground v.1.15,2013-04-23 19:20:00,
2013-04-23 14:25:00,73.6,69.8,30.07,North,32767,0.0,0.0,88,0.00,,,0.00,Wunderground v.1.15,2013-04-23 19:25:00,
2013-04-23 14:30:00,73.7,69.6,30.06,North,32767,0.0,0.0,87,0.00,,,0.00,Wunderground v.1.15,2013-04-23 19:30:00,
2013-04-23 14:35:00,73.8,69.7,30.06,North,32767,0.0,0.0,87,0.00,,,0.00,Wunderground v.1.15,2013-04-23 19:35:00,
2013-04-23 14:45:00,74.4,70.6,30.06,North,32767,0.0,0.0,88,0.00,,,0.00,Wunderground v.1.15,2013-04-23 19:45:00,
2013-04-23 14:50:00,74.4,69.9,30.06,North,32767,0.0,0.0,86,0.00,,,0.00,Wunderground v.1.15,2013-04-23 19:50:00,
2013-04-23 14:55:00,73.7,69.6,30.06,North,32767,0.0,0.0,87,0.00,,,0.00,Wunderground v.1.15,2013-04-23 19:55:00,
2013-04-23 15:00:00,73.4,69.3,30.06,North,32767,0.0,0.0,87,0.00,,,0.00,Wunderground v.1.15,2013-04-23 20:00:00,
2013-04-23 15:05:00,73.2,69.4,30.06,North,32767,0.0,0.0,88,0.00,,,0.00,Wunderground v.1.15,2013-04-23 20:05:00,
2013-04-23 15:10:00,73.0,69.2,30.06,North,32767,0.0,0.0,88,0.00,,,0.00,Wunderground v.1.15,2013-04-23 20:10:00,
2013-04-23 15:15:00,72.7,68.9,30.05,North,32767,0.0,0.0,88,0.00,,,0.00,Wunderground v.1.15,2013-04-23 20:15:00,
2013-04-23 15:20:00,72.6,69.2,30.06,North,32767,0.0,0.0,89,0.00,,,0.00,Wunderground v.1.15,2013-04-23 20:20:00,
2013-04-23 15:25:00,72.8,69.4,30.06,North,32767,0.0,0.0,89,0.00,,,0.00,Wunderground v.1.15,2013-04-23 20:25:00,
2013-04-23 15:30:00,73.3,69.5,30.05,North,32767,0.0,0.0,88,0.00,,,0.00,Wunderground v.1.15,2013-04-23 20:30:00,
2013-04-23 15:35:00,73.1,69.3,30.05,North,32767,0.0,0.0,88,0.00,,,0.00,Wunderground v.1.15,2013-04-23 20:35:00,
2013-04-23 15:40:00,72.9,69.1,30.05,North,32767,0.0,0.0,88,0.00,,,0.00,Wunderground v.1.15,2013-04-23 20:40:00,
2013-04-23 15:45:00,72.9,69.1,30.05,North,32767,0.0,0.0,88,0.00,,,0.00,Wunderground v.1.15,2013-04-23 20:45:00,
2013-04-23 15:50:00,73.2,69.4,30.05,North,32767,0.0,0.0,88,0.00,,,0.00,Wunderground v.1.15,2013-04-23 20:50:00,
2013-04-23 15:55:00,73.3,69.5,30.05,North,32767,0.0,0.0,88,0.00,,,0.00,Wunderground v.1.15,2013-04-23 20:55:00,
2013-04-23 16:00:00,73.2,69.1,30.05,North,32767,0.0,0.0,87,0.00,,,0.00,Wunderground v.1.15,2013-04-23 21:00:00,
2013-04-23 16:05:00,72.8,69.0,30.05,North,32767,0.0,0.0,88,0.00,,,0.00,Wunderground v.1.15,2013-04-23 21:05:00,
2013-04-23 16:10:00,73.1,69.3,30.05,North,32767,0.0,0.0,88,0.00,,,0.00,Wunderground v.1.15,2013-04-23 21:10:00,
2013-04-23 16:15:00,73.1,69.3,30.04,North,32767,0.0,0.0,88,0.00,,,0.00,Wunderground v.1.15,2013-04-23 21:15:00,
2013-04-23 16:20:00,73.1,69.3,30.04,North,32767,0.0,0.0,88,0.00,,,0.00,Wunderground v.1.15,2013-04-23 21:20:00,
2013-04-23 16:25:00,73.1,69.0,30.04,North,32767,0.0,0.0,87,0.00,,,0.00,Wunderground v.1.15,2013-04-23 21:25:00,
2013-04-23 16:30:00,73.2,69.4,30.03,North,32767,0.0,0.0,88,0.00,,,0.00,Wunderground v.1.15,2013-04-23 21:30:00,
2013-04-23 16:35:00,73.0,69.2,30.03,North,32767,0.0,0.0,88,0.00,,,0.00,Wunderground v.1.15,2013-04-23 21:35:00,
2013-04-23 16:40:00,72.9,69.1,30.03,North,32767,0.0,0.0,88,0.00,,,0.00,Wunderground v.1.15,2013-04-23 21:40:00,
2013-04-23 16:45:00,72.6,68.5,30.03,North,32767,0.0,0.0,87,0.00,,,0.00,Wunderground v.1.15,2013-04-23 21:45:00,
2013-04-23 16:50:00,72.6,68.8,30.03,North,32767,0.0,0.0,88,0.00,,,0.00,Wunderground v.1.15,2013-04-23 21:50:00,
2013-04-23 16:55:00,72.6,68.8,30.03,North,32767,0.0,0.0,88,0.00,,,0.00,Wunderground v.1.15,2013-04-23 21:55:00,
2013-04-23 17:00:00,72.5,68.7,30.03,North,32767,0.0,0.0,88,0.00,,,0.00,Wunderground v.1.15,2013-04-23 22:00:00,
2013-04-23 17:05:00,72.4,68.6,30.03,North,32767,0.0,0.0,88,0.00,,,0.00,Wunderground v.1.15,2013-04-23 22:05:00,
2013-04-23 17:10:00,72.4,69.0,30.03,North,32767,0.0,0.0,89,0.00,,,0.00,Wunderground v.1.15,2013-04-23 22:10:00,
2013-04-23 17:15:00,72.2,68.4,30.03,North,32767,0.0,0.0,88,0.00,,,0.00,Wunderground v.1.15,2013-04-23 22:15:00,
2013-04-23 17:20:00,71.9,68.5,30.03,North,32767,0.0,0.0,89,0.00,,,0.00,Wunderground v.1.15,2013-04-23 22:20:00,
2013-04-23 17:25:00,71.7,68.3,30.03,North,32767,0.0,0.0,89,0.00,,,0.00,Wunderground v.1.15,2013-04-23 22:25:00,
2013-04-23 17:30:00,71.8,68.4,30.03,North,32767,0.0,0.0,89,0.00,,,0.00,Wunderground v.1.15,2013-04-23 22:30:00,
2013-04-23 17:35:00,71.8,68.4,30.03,North,32767,0.0,0.0,89,0.00,,,0.00,Wunderground v.1.15,2013-04-23 22:35:00,
2013-04-23 17:40:00,71.6,68.2,30.03,North,32767,0.0,0.0,89,0.00,,,0.00,Wunderground v.1.15,2013-04-23 22:40:00,
2013-04-23 17:45:00,71.5,68.4,30.03,North,32767,0.0,0.0,90,0.00,,,0.00,Wunderground v.1.15,2013-04-23 22:45:00,
2013-04-23 17:50:00,71.2,68.1,30.03,North,32767,0.0,0.0,90,0.00,,,0.00,Wunderground v.1.15,2013-04-23 22:50:00,
2013-04-23 17:55:00,71.1,68.0,30.03,North,32767,0.0,0.0,90,0.00,,,0.00,Wunderground v.1.15,2013-04-23 22:55:00,
2013-04-23 18:00:00,71.0,67.9,30.03,North,32767,0.0,0.0,90,0.00,,,0.00,Wunderground v.1.15,2013-04-23 23:00:00,
2013-04-23 18:05:00,71.0,67.9,30.03,North,32767,0.0,0.0,90,0.00,,,0.00,Wunderground v.1.15,2013-04-23 23:05:00,
2013-04-23 18:15:00,71.0,68.2,30.03,North,32767,0.0,0.0,91,0.00,,,0.00,Wunderground v.1.15,2013-04-23 23:15:00,
2013-04-23 18:20:00,70.8,68.0,30.03,North,32767,0.0,0.0,91,0.00,,,0.00,Wunderground v.1.15,2013-04-23 23:20:00,
2013-04-23 18:25:00,70.6,67.8,30.03,North,32767,0.0,0.0,91,0.00,,,0.00,Wunderground v.1.15,2013-04-23 23:25:00,
2013-04-23 18:30:00,70.5,67.7,30.03,North,32767,0.0,0.0,91,0.00,,,0.00,Wunderground v.1.15,2013-04-23 23:30:00,
2013-04-23 18:35:00,70.3,67.5,30.03,North,32767,0.0,0.0,91,0.00,,,0.00,Wunderground v.1.15,2013-04-23 23:35:00,
2013-04-23 18:40:00,70.2,67.8,30.03,North,32767,0.0,0.0,92,0.00,,,0.00,Wunderground v.1.15,2013-04-23 23:40:00,
2013-04-23 18:45:00,70.0,67.6,30.02,North,32767,0.0,0.0,92,0.00,,,0.00,Wunderground v.1.15,2013-04-23 23:45:00,
2013-04-23 18:50:00,69.8,67.4,30.02,North,32767,0.0,0.0,92,0.00,,,0.00,Wunderground v.1.15,2013-04-23 23:50:00,
2013-04-23 18:55:00,69.7,67.3,30.02,North,32767,0.0,0.0,92,0.00,,,0.00,Wunderground v.1.15,2013-04-23 23:55:00,
2013-04-23 19:00:00,69.6,67.2,30.03,North,32767,0.0,0.0,92,0.00,,,0.00,Wunderground v.1.15,2013-04-24 00:00:00,
2013-04-23 19:05:00,69.5,67.4,30.03,North,32767,0.0,0.0,93,0.00,,,0.00,Wunderground v.1.15,2013-04-24 00:05:00,
2013-04-23 19:10:00,69.4,67.3,30.03,North,32767,0.0,0.0,93,0.00,,,0.00,Wunderground v.1.15,2013-04-24 00:10:00,
2013-04-23 19:15:00,69.3,67.2,30.03,North,32767,0.0,0.0,93,0.00,,,0.00,Wunderground v.1.15,2013-04-24 00:15:00,
2013-04-23 19:20:00,69.2,67.1,30.03,North,32767,0.0,0.0,93,0.00,,,0.00,Wunderground v.1.15,2013-04-24 00:20:00,
2013-04-23 19:25:00,69.2,67.1,30.03,North,32767,0.0,0.0,93,0.00,,,0.00,Wunderground v.1.15,2013-04-24 00:25:00,
2013-04-23 19:30:00,69.1,67.0,30.04,North,32767,0.0,0.0,93,0.00,,,0.00,Wunderground v.1.15,2013-04-24 00:30:00,
2013-04-23 19:35:00,69.1,67.0,30.04,North,32767,0.0,0.0,93,0.00,,,0.00,Wunderground v.1.15,2013-04-24 00:35:00,
2013-04-23 19:40:00,69.0,66.9,30.04,North,32767,0.0,0.0,93,0.00,,,0.00,Wunderground v.1.15,2013-04-24 00:40:00,
2013-04-23 19:45:00,69.0,66.9,30.04,North,32767,0.0,0.0,93,0.00,,,0.00,Wunderground v.1.15,2013-04-24 00:45:00,
2013-04-23 19:50:00,69.0,66.9,30.04,North,32767,0.0,0.0,93,0.00,,,0.00,Wunderground v.1.15,2013-04-24 00:50:00,
2013-04-23 19:55:00,68.9,66.8,30.04,North,32767,0.0,0.0,93,0.00,,,0.00,Wunderground v.1.15,2013-04-24 00:55:00,
2013-04-23 20:00:00,68.8,66.7,30.04,North,32767,0.0,0.0,93,0.00,,,0.00,Wunderground v.1.15,2013-04-24 01:00:00,
2013-04-23 20:05:00,68.8,67.0,30.05,North,32767,0.0,0.0,94,0.00,,,0.00,Wunderground v.1.15,2013-04-24 01:05:00,
2013-04-23 20:15:00,68.7,66.9,30.05,North,32767,0.0,0.0,94,0.00,,,0.00,Wunderground v.1.15,2013-04-24 01:15:00,
2013-04-23 20:20:00,68.7,66.9,30.05,North,32767,0.0,0.0,94,0.00,,,0.00,Wunderground v.1.15,2013-04-24 01:20:00,
2013-04-23 20:25:00,68.7,66.9,30.05,North,32767,0.0,0.0,94,0.00,,,0.00,Wunderground v.1.15,2013-04-24 01:25:00,
2013-04-23 20:30:00,68.6,66.8,30.05,North,32767,0.0,0.0,94,0.00,,,0.00,Wunderground v.1.15,2013-04-24 01:30:00,
2013-04-23 20:35:00,68.6,66.8,30.05,North,32767,0.0,0.0,94,0.00,,,0.00,Wunderground v.1.15,2013-04-24 01:35:00,
2013-04-23 20:40:00,68.6,66.8,30.05,North,32767,0.0,0.0,94,0.00,,,0.00,Wunderground v.1.15,2013-04-24 01:40:00,
2013-04-23 20:45:00,68.6,66.8,30.06,North,32767,0.0,0.0,94,0.00,,,0.00,Wunderground v.1.15,2013-04-24 01:45:00,
2013-04-23 20:50:00,68.6,66.8,30.06,North,32767,0.0,0.0,94,0.00,,,0.00,Wunderground v.1.15,2013-04-24 01:50:00,
2013-04-23 20:55:00,68.5,66.7,30.05,North,32767,0.0,0.0,94,0.00,,,0.00,Wunderground v.1.15,2013-04-24 01:55:00,
2013-04-23 21:00:00,68.5,66.7,30.06,North,32767,0.0,0.0,94,0.00,,,0.00,Wunderground v.1.15,2013-04-24 02:00:00,
2013-04-23 21:05:00,68.6,66.8,30.05,North,32767,0.0,0.0,94,0.00,,,0.00,Wunderground v.1.15,2013-04-24 02:05:00,
2013-04-23 21:10:00,68.5,66.7,30.06,North,32767,0.0,0.0,94,0.00,,,0.00,Wunderground v.1.15,2013-04-24 02:10:00,
2013-04-23 21:15:00,68.5,66.7,30.06,North,32767,0.0,0.0,94,0.00,,,0.00,Wunderground v.1.15,2013-04-24 02:15:00,
2013-04-23 21:20:00,68.5,67.0,30.06,North,32767,0.0,0.0,95,0.00,,,0.00,Wunderground v.1.15,2013-04-24 02:20:00,
2013-04-23 21:25:00,68.6,67.1,30.06,North,32767,0.0,0.0,95,0.00,,,0.00,Wunderground v.1.15,2013-04-24 02:25:00,
2013-04-23 21:30:00,68.6,67.1,30.06,North,32767,0.0,0.0,95,0.00,,,0.00,Wunderground v.1.15,2013-04-24 02:30:00,
2013-04-23 21:40:00,68.5,67.0,30.06,North,32767,0.0,0.0,95,0.00,,,0.00,Wunderground v.1.15,2013-04-24 02:40:00,
2013-04-23 21:45:00,68.6,67.1,30.06,North,32767,0.0,0.0,95,0.00,,,0.00,Wunderground v.1.15,2013-04-24 02:45:00,
2013-04-23 21:50:00,68.6,67.1,30.06,North,32767,0.0,0.0,95,0.00,,,0.00,Wunderground v.1.15,2013-04-24 02:50:00,
2013-04-23 21:55:00,68.6,67.1,30.06,North,32767,0.0,0.0,95,0.00,,,0.00,Wunderground v.1.15,2013-04-24 02:55:00,
2013-04-23 22:00:00,68.6,67.1,30.06,North,32767,0.0,0.0,95,0.00,,,0.00,Wunderground v.1.15,2013-04-24 03:00:00,
2013-04-23 22:05:00,68.6,67.1,30.06,North,32767,0.0,0.0,95,0.00,,,0.00,Wunderground v.1.15,2013-04-24 03:05:00,
2013-04-23 22:20:00,68.5,67.0,30.06,North,32767,0.0,0.0,95,0.00,,,0.00,Wunderground v.1.15,2013-04-24 03:20:00,
2013-04-23 22:25:00,68.5,67.0,30.05,North,32767,0.0,0.0,95,0.00,,,0.00,Wunderground v.1.15,2013-04-24 03:25:00,
2013-04-23 22:30:00,68.5,67.0,30.05,North,32767,0.0,0.0,95,0.00,,,0.00,Wunderground v.1.15,2013-04-24 03:30:00,
2013-04-23 22:35:00,68.5,67.0,30.05,North,32767,0.0,0.0,95,0.00,,,0.00,Wunderground v.1.15,2013-04-24 03:35:00,
2013-04-23 22:40:00,68.5,67.0,30.05,North,32767,0.0,0.0,95,0.00,,,0.00,Wunderground v.1.15,2013-04-24 03:40:00,
2013-04-23 22:45:00,68.5,67.0,30.05,North,32767,0.0,0.0,95,0.00,,,0.00,Wunderground v.1.15,2013-04-24 03:45:00,
2013-04-23 22:50:00,68.5,67.0,30.05,North,32767,0.0,0.0,95,0.00,,,0.00,Wunderground v.1.15,2013-04-24 03:50:00,
2013-04-23 22:55:00,68.5,67.0,30.05,North,32767,0.0,0.0,95,0.00,,,0.00,Wunderground v.1.15,2013-04-24 03:55:00,
2013-04-23 23:00:00,68.5,67.0,30.05,North,32767,0.0,0.0,95,0.00,,,0.00,Wunderground v.1.15,2013-04-24 04:00:00,
2013-04-23 23:05:00,68.6,67.1,30.05,North,32767,0.0,0.0,95,0.00,,,0.00,Wunderground v.1.15,2013-04-24 04:05:00,
2013-04-23 23:10:00,68.6,67.1,30.05,North,32767,0.0,0.0,95,0.00,,,0.00,Wunderground v.1.15,2013-04-24 04:10:00,
2013-04-23 23:20:00,68.6,67.1,30.05,North,32767,0.0,0.0,95,0.00,,,0.00,Wunderground v.1.15,2013-04-24 04:20:00,
2013-04-23 23:25:00,68.6,67.1,30.04,North,32767,0.0,0.0,95,0.00,,,0.00,Wunderground v.1.15,2013-04-24 04:25:00,
2013-04-23 23:30:00,68.6,67.1,30.05,North,32767,0.0,0.0,95,0.00,,,0.00,Wunderground v.1.15,2013-04-24 04:30:00,
2013-04-23 23:35:00,68.6,67.1,30.04,North,32767,0.0,0.0,95,0.00,,,0.00,Wunderground v.1.15,2013-04-24 04:35:00,
2013-04-23 23:40:00,68.6,67.1,30.04,North,32767,0.0,0.0,95,0.00,,,0.00,Wunderground v.1.15,2013-04-24 04:40:00,
2013-04-23 23:45:00,68.6,67.1,30.04,North,32767,0.0,0.0,95,0.00,,,0.00,Wunderground v.1.15,2013-04-24 04:45:00,
2013-04-23 23:50:00,68.6,67.1,30.04,North,32767,0.0,0.0,95,0.00,,,0.00,Wunderground v.1.15,2013-04-24 04:50:00,
2013-04-23 23:55:00,68.6,67.1,30.04,North,32767,0.0,0.0,95,0.00,,,0.00,Wunderground v.1.15,2013-04-24 04:55:00,